Preview of NWS' New Version of Forecast
This preview is not operational and should not be used for support decisions.

Regional Weather Roundup (RWR)

Issued by National Weather Service (NWS)

                            
000
ASCA42 TJSJ 211610
RWRPR 
PUERTO RICO/U.S. VIRGIN ISLANDS HOURLY WEATHER ROUNDUP
NATIONAL WEATHER SERVICE SAN JUAN PR
1200 PM AST SUN JUL 21 2019

PRZ001>002-007>008-010-211700-
PUERTO RICO
  
CITY           SKY/WX    TMP DP  RH WIND       PRES   REMARKS
SAN JUAN LMM   MOSUNNY   90  73  58 NE20      30.01F HX  98           
AGUADILLA      SUNNY     86  75  70 NE13      30.03F HX  95           
CEIBA          MOSUNNY   90  75  62 E12       30.03F HX 100           
$$

VIZ001>002-211700-
U.S. VIRGIN ISLANDS
  
CITY           SKY/WX    TMP DP  RH WIND       PRES   REMARKS
CHARLOTTE AMA  MOSUNNY   84  75  74 SE12      30.01F HX  92           
CHRISTIANSTED  SUNNY     90  73  58 SE15      30.02F HX  98           
$$

HOURLY WEATHER ROUNDUP FOR THE NEWS MEDIA
  
CITY           SKY/WX    TMP DP  RH WIND       PRES   REMARKS
ORLANDO        FAIR      90  71  53 VRB5      30.08S HX  96           
NEW YORK       FAIR      94  78  60 SW14      29.80F HX 110           
NEWARK         FAIR      95  75  52 W10       29.80F HX 107           
CHICAGO        TSTM      69  67  93 N10       29.97S                  
HARTFORD       LGT RAIN  88  72  58 W9        29.73F HX  94           
BOSTON         FAIR      91  70  49 SW20G28   29.70F HX  96           
DALLAS         MOSUNNY   89  67  47 SW10      29.96F HX  92           
PHILADELPHIA   FAIR      94  73  50 SW12      29.84F HX 103           
LOS ANGELES    MOSUNNY   67  60  78 SW5       29.94S                  
WASHINGTON DC  FAIR      95  71  45 NW10      29.91F HX 102